Location: Buch
(50.1863°N, 11.0141°E)
Time: 11:11:40
(UTC+00:00)

Cosmos 1953 Rocket - Pass Details

Date: 18 January 2020
Orbit: 603 x 636 km, 82.5° (Epoch: 18 February)

Event Time Altitude Azimuth Distance (km) Brightness Sun altitude
Exits shadow 05:25:54 - 348° (NNW) 2,796 6.7 -15.7°
Reaches altitude 10° 05:27:49 10° 347° (NNW) 2,021 5.9 -15.5°
Maximum altitude 05:32:18 78° 262° (W) 646 3.5 -14.8°
Drops below altitude 10° 05:36:42 10° 177° (S) 1,986 6.4 -14.1°
Sets 05:38:54 0° 176° (S) 2,881 7.3 -13.7°
